Wind_Speed
46 41 35 30 26 24 22 15 11 9 1 4 1 4 3 2 5 8 9 10 14 14 15 16 17 23 25 25 25 24 24 29 29
50 43 36 32 29 27 22 20 15 15 12 8 8 2 2 5 1 2 3 8 11 2 9 14 15 15 20 24 24 26 28 28 28
60 50 42 37 35 35 29 27 21 18 17 14 10 9 6 8 6 5 4 4 4 17 13 5 5 11 12 15 19 21 23 26 30
65 55 43 41 43 39 35 33 33 27 24 18 16 12 10 11 11 9 8 6 7 7 5 4 4 7 7 7 10 13 17 19 20
64 62 58 53 50 49 44 41 38 35 28 25 21 16 16 14 17 15 14 13 11 10 8 4 5 1 4 2 5 6 12 14 16
69 67 64 59 59 54 52 48 44 39 39 33 29 28 24 25 22 25 21 20 18 17 13 13 9 7 6 5 3 2 2 8 7
78 75 67 62 62 58 61 55 52 45 45 42 37 32 30 27 20 28 27 28 25 21 20 17 16 14 8 8 10 7 5 4 6
80 80 78 68 60 61 61 61 59 58 49 47 42 41 34 30 32 30 30 32 32 32 28 25 21 19 11 13 20 16 15 9 8
85 85 79 75 62 63 62 65 63 59 53 51 50 46 44 40 34 31 29 28 34 37 35 33 31 28 27 19 19 19 16 19 15
85 82 80 78 81 67 68 68 68 64 60 59 56 56 53 51 49 44 39 36 36 38 41 40 38 38 35 34 31 29 26 25 24
91 85 83 88 86 80 72 70 72 71 69 67 65 61 57 54 59 56 50 47 46 46 45 43 47 44 43 41 41 38 36 35 33
98 94 90 92 87 77 79 74 74 75 73 76 71 67 65 63 62 64 61 57 57 52 52 46 51 54 55 54 52 49 43 41 43
103 105 100 95 91 90 91 90 85 81 82 81 79 74 69 68 67 69 68 64 62 59 58 57 57 59 59 59 60 56 55 53 50
102 105 105 101 104 98 101 95 91 88 82 77 80 79 79 78 78 76 74 71 69 68 66 67 68 67 67 68 64 64 64 63 59
103 101 104 107 108 109 103 101 98 94 92 89 84 73 73 76 79 79 77 77 74 74 76 75 74 74 73 73 76 73 71 69 68
108 106 104 109 113 111 106 106 105 107 106 99 97 95 96 93 84 78 79 83 87 85 77 79 81 78 78 78 78 79 76 71 73
108 110 110 108 109 113 115 113 114 109 111 109 106 103 102 104 99 99 93 93 83 82 85 86 88 86 85 82 82 81 79 79 79
105 106 108 110 110 108 107 108 110 114 116 116 115 114 114 114 113 111 115 111 105 97 91 89 91 87 86 88 87 83 83 86 84
99 104 107 108 110 111 110 108 108 109 111 112 113 115 116 116 116 110 108 109 114 113 110 106 99 96 96 95 95 97 97 96 89
99 100 102 106 107 109 113 115 114 112 110 109 109 109 110 109 109 108 107 107 106 111 112 116 114 112 112 110 107 104 103 103 105
Wind_Direction
222 224 232 240 229 218 205 207 224 238 208 240 271 142 72 31 58 96 84 64 77 40 48 52 48 54 49 52 55 54 49 49 49
223 225 233 237 232 218 214 213 227 246 250 271 286 229 195 241 117 189 99 99 113 186 36 54 52 49 48 49 49 55 59 56 52
225 231 232 233 231 228 226 223 224 237 245 248 273 261 233 242 224 208 183 155 150 102 268 360 25 7 43 28 43 43 47 53 56
228 227 226 237 231 228 238 230 233 243 242 235 249 256 258 232 227 229 215 220 194 176 227 231 346 351 349 16 45 44 43 39 40
227 228 236 238 229 232 237 242 242 243 246 238 237 247 253 246 237 229 227 226 234 232 242 230 234 288 349 359 53 50 59 41 38
228 229 234 227 228 228 235 241 242 246 246 247 242 243 252 254 253 245 238 238 237 244 242 248 248 289 321 302 279 299 36 37 35
230 231 233 227 230 233 239 242 243 245 249 248 244 243 255 249 256 251 242 238 243 244 245 249 247 262 287 302 277 254 249 317 334
229 233 234 231 233 236 237 237 240 246 246 241 246 248 244 242 232 241 242 242 242 249 251 247 251 253 259 285 292 268 251 254 299
227 232 236 230 225 235 242 240 234 238 242 243 239 242 251 243 233 237 242 252 250 250 247 254 251 250 250 258 274 269 279 274 261
229 227 231 226 221 232 239 239 236 240 238 237 239 241 247 249 244 241 244 252 259 257 252 251 255 255 260 259 266 275 278 282 283
224 224 223 225 230 233 233 235 239 241 239 237 240 242 246 248 248 245 244 251 257 259 257 256 255 252 253 260 262 271 274 275 276
221 219 222 225 231 230 225 228 238 241 240 237 237 243 244 245 246 243 245 251 256 257 255 253 260 256 256 259 261 266 268 273 274
224 223 226 232 231 223 225 227 232 233 242 242 241 243 241 245 248 248 246 246 249 251 253 247 249 256 259 256 259 261 266 269 274
229 227 228 228 229 232 227 225 229 232 232 234 244 244 247 246 246 246 246 248 250 253 255 251 251 253 256 258 257 257 261 265 266
230 230 230 229 230 229 232 233 229 228 231 234 234 234 239 242 244 244 247 247 251 252 252 255 255 256 257 258 257 258 258 262 266
231 231 230 231 231 230 232 232 236 239 234 232 232 238 239 239 239 240 247 250 253 252 251 252 252 254 257 258 259 260 262 265 266
233 232 233 232 233 234 234 235 237 236 241 243 240 239 237 243 250 244 245 249 249 251 254 255 252 252 250 253 254 257 260 260 263
235 236 236 236 236 236 237 238 237 239 240 242 245 245 244 245 247 251 255 256 250 249 249 247 251 248 251 252 254 254 254 260 262
235 236 237 238 239 239 239 240 241 240 241 243 245 247 249 251 252 254 255 253 253 254 255 250 248 247 252 252 251 254 256 256 255
234 235 236 239 241 241 241 241 241 243 243 244 246 247 249 250 252 253 254 255 255 255 255 254 257 253 252 254 252 256 257 257 258
Height
10993 10999 11004 11009 11014 11018 11020 11024 11025 11025 11026 11026 11027 11028 11029 11029 11030 11030 11031 11030 11027 11031 11031 11028 11025 11022 11018 11013 11009 11006 11004 11001 10998
10987 10993 10999 11006 11010 11015 11014 11020 11023 11025 11026 11026 11026 11027 11029 11029 11030 11031 11032 11033 11029 11039 11037 11032 11029 11025 11023 11020 11017 11013 11010 11007 11004
10979 10986 10992 10999 11006 11010 11013 11016 11019 11022 11024 11024 11026 11026 11027 11029 11030 11030 11031 11033 11036 11039 11044 11037 11028 11029 11026 11024 11021 11019 11016 11013 11010
10971 10979 10985 10991 10999 11003 11008 11011 11014 11018 11020 11021 11023 11025 11026 11027 11028 11028 11029 11031 11033 11035 11035 11033 11031 11029 11027 11026 11024 11022 11020 11018 11016
10963 10969 10976 10984 10992 10997 10999 11004 11007 11011 11014 11017 11019 11022 11022 11025 11025 11026 11027 11028 11029 11029 11030 11030 11027 11026 11026 11027 11026 11024 11022 11020 11019
10951 10959 10968 10975 10981 10986 10989 10995 11000 11004 11007 11011 11013 11016 11018 11020 11022 11023 11024 11025 11026 11026 11026 11027 11028 11027 11027 11026 11025 11025 11024 11022 11020
10940 10947 10957 10966 10970 10974 10978 10987 10990 10995 10999 11003 11005 11010 11011 11014 11016 11017 11019 11022 11022 11022 11024 11025 11025 11025 11025 11026 11025 11024 11023 11022 11021
10927 10934 10945 10957 10960 10963 10968 10973 10980 10984 10990 10994 10998 11000 11005 11007 11008 11011 11013 11016 11017 11018 11019 11020 11021 11022 11022 11021 11023 11022 11022 11021 11020
10914 10922 10929 10943 10952 10952 10957 10962 10968 10973 10979 10984 10989 10991 10995 11000 11001 11003 11007 11009 11012 11013 11013 11015 11016 11016 11017 11016 11017 11017 11019 11019 11018
10898 10908 10919 10925 10936 10942 10944 10951 10955 10962 10968 10973 10977 10981 10985 10988 10991 10995 10998 11000 11003 11005 11007 11007 11009 11010 11011 11010 11010 11012 11013 11014 11014
10882 10893 10903 10913 10918 10930 10936 10938 10941 10949 10954 10959 10963 10969 10974 10977 10980 10983 10987 10991 10994 10995 10996 10998 10999 11000 11002 11004 11004 11004 11005 11006 11007
10866 10877 10887 10892 10903 10911 10924 10926 10928 10932 10938 10942 10949 10956 10959 10964 10967 10970 10974 10977 10980 10983 10985 10988 10988 10990 10992 10993 10994 10995 10996 10996 10998
10846 10859 10870 10878 10885 10892 10899 10906 10913 10918 10922 10927 10933 10938 10944 10948 10952 10957 10961 10963 10966 10969 10973 10976 10976 10977 10979 10982 10982 10984 10985 10985 10987
10823 10839 10849 10856 10864 10874 10881 10888 10896 10902 10909 10910 10916 10921 10925 10931 10935 10940 10945 10950 10952 10954 10957 10961 10962 10964 10966 10968 10969 10972 10972 10973 10975
10804 10816 10826 10836 10843 10851 10862 10871 10877 10882 10888 10895 10902 10906 10908 10910 10915 10920 10926 10932 10937 10939 10941 10944 10945 10947 10950 10951 10952 10954 10957 10959 10960
10781 10793 10802 10810 10818 10829 10842 10851 10856 10861 10866 10872 10879 10884 10891 10893 10895 10898 10904 10909 10915 10922 10924 10927 10929 10931 10932 10934 10935 10937 10939 10941 10943
10760 10771 10779 10790 10798 10808 10819 10828 10835 10844 10849 10852 10858 10862 10868 10871 10873 10878 10886 10892 10895 10898 10903 10906 10910 10911 10913 10915 10916 10918 10920 10922 10925
10740 10752 10762 10771 10780 10789 10796 10805 10813 10820 10825 10830 10833 10839 10845 10849 10853 10858 10861 10864 10873 10877 10882 10884 10887 10889 10892 10895 10896 10898 10899 10901 10904
10723 10729 10739 10749 10758 10767 10774 10780 10785 10794 10800 10806 10813 10817 10821 10824 10829 10834 10836 10840 10845 10849 10854 10859 10863 10865 10868 10872 10872 10875 10878 10879 10880
10697 10706 10716 10724 10734 10742 10748 10756 10763 10770 10778 10784 10789 10794 10798 10802 10805 10809 10812 10815 10819 10822 10827 10832 10833 10839 10841 10844 10849 10849 10851 10853 10854